• In Deutschland
  • Länderverzeichnis
  • Für 7 Tage
  • Wassertemperatur
  • Satellitenkarten
  • Wetterkarte
  • Widgets
  • user-avatar
    Anmelden

    Stündliche Wetter Cataratas del Iguazù

    Heute, 23 September, Sonntag

    Zeit Temperatur Niederschläge Wind Luftdruck Luftfeuchtigkeit
    00:00 +27°C° 0 mm 2 m/S 736 mmHg 77%
    01:00 +26°C° 0 mm 1 m/S 736 mmHg 79%
    02:00 +26°C° 0 mm 1 m/S 737 mmHg 81%
    03:00 +25°C° 0 mm 1 m/S 737 mmHg 82%
    04:00 +25°C° 0 mm 1 m/S 737 mmHg 83%
    05:00 +25°C° 0 mm 1 m/S 737 mmHg 85%
    06:00 +26°C° 0 mm 2 m/S 738 mmHg 77%
    07:00 +28°C° 0 mm 2 m/S 738 mmHg 69%
    08:00 +30°C° 0 mm 2 m/S 739 mmHg 61%
    09:00 +33°C° 0 mm 3 m/S 739 mmHg 54%
    10:00 +35°C° 0 mm 3 m/S 739 mmHg 47%
    11:00 +37°C° 0 mm 3 m/S 739 mmHg 40%
    12:00 +38°C° 0 mm 3 m/S 738 mmHg 38%
    13:00 +38°C° 0 mm 3 m/S 737 mmHg 35%
    14:00 +39°C° 0 mm 3 m/S 737 mmHg 33%
    15:00 +37°C° 0 mm 2 m/S 737 mmHg 39%
    16:00 +36°C° 0 mm 2 m/S 737 mmHg 44%
    17:00 +34°C° 0 mm 2 m/S 737 mmHg 49%
    18:00 +32°C° 0 mm 2 m/S 737 mmHg 54%
    19:00 +30°C° 0 mm 2 m/S 737 mmHg 58%
    20:00 +29°C° 0 mm 2 m/S 738 mmHg 62%
    21:00 +29°C° 0 mm 2 m/S 738 mmHg 64%
    22:00 +28°C° 0 mm 2 m/S 738 mmHg 65%
    23:00 +27°C° 0 mm 2 m/S 738 mmHg 67%

    Morgen, 24 September, Montag

    Zeit Temperatur Niederschläge Wind Luftdruck Luftfeuchtigkeit
    00:00 +27°C° 0 mm 1 m/S 738 mmHg 68%
    01:00 +26°C° 0 mm 1 m/S 737 mmHg 69%
    02:00 +26°C° 0 mm 1 m/S 737 mmHg 70%
    03:00 +25°C° 0.1 mm 1 m/S 737 mmHg 73%
    04:00 +25°C° 0.1 mm 1 m/S 737 mmHg 76%
    05:00 +24°C° 0.1 mm 1 m/S 737 mmHg 79%
    06:00 +25°C° 0.6 mm 1 m/S 738 mmHg 78%
    07:00 +26°C° 0.6 mm 2 m/S 738 mmHg 76%
    08:00 +27°C° 0.6 mm 2 m/S 739 mmHg 75%
    09:00 +29°C° 0 mm 2 m/S 739 mmHg 66%
    10:00 +31°C° 0 mm 2 m/S 740 mmHg 57%
    11:00 +33°C° 0 mm 1 m/S 740 mmHg 48%
    12:00 +33°C° 0.1 mm 1 m/S 740 mmHg 50%
    13:00 +32°C° 0.1 mm 2 m/S 739 mmHg 51%
    14:00 +32°C° 0.1 mm 2 m/S 739 mmHg 53%
    15:00 +30°C° 0.5 mm 2 m/S 738 mmHg 61%
    16:00 +29°C° 0.5 mm 2 m/S 738 mmHg 70%
    17:00 +27°C° 0.5 mm 3 m/S 738 mmHg 78%
    18:00 +26°C° 0.6 mm 2 m/S 738 mmHg 81%
    19:00 +25°C° 0.6 mm 2 m/S 738 mmHg 84%
    20:00 +25°C° 0.6 mm 2 m/S 738 mmHg 87%
    21:00 +24°C° 0 mm 2 m/S 738 mmHg 86%
    22:00 +24°C° 0 mm 2 m/S 738 mmHg 86%
    23:00 +24°C° 0 mm 1 m/S 739 mmHg 86%

    übermorgen, 25 September, Dienstag

    Zeit Temperatur Niederschläge Wind Luftdruck Luftfeuchtigkeit
    00:00 +24°C° 0 mm 1 m/S 738 mmHg 85%
    01:00 +24°C° 0 mm 1 m/S 737 mmHg 85%
    02:00 +24°C° 0 mm 1 m/S 736 mmHg 84%
    03:00 +24°C° 0 mm 1 m/S 736 mmHg 84%
    04:00 +24°C° 0 mm 1 m/S 736 mmHg 84%
    05:00 +24°C° 0 mm 1 m/S 736 mmHg 83%
    06:00 +24°C° 0.2 mm 1 m/S 737 mmHg 81%
    07:00 +25°C° 0.2 mm 1 m/S 737 mmHg 79%
    08:00 +26°C° 0.2 mm 1 m/S 738 mmHg 77%
    09:00 +27°C° 0 mm 1 m/S 738 mmHg 71%
    10:00 +29°C° 0 mm 1 m/S 738 mmHg 66%
    11:00 +30°C° 0 mm 1 m/S 738 mmHg 60%
    12:00 +30°C° 0 mm 1 m/S 738 mmHg 61%
    13:00 +28°C° 0 mm 0 m/S 737 mmHg 61%
    14:00 +28°C° 0 mm 0 m/S 737 mmHg 62%
    15:00 +29°C° 0.1 mm 1 m/S 737 mmHg 68%
    16:00 +28°C° 0.1 mm 1 m/S 737 mmHg 74%
    17:00 +26°C° 0.1 mm 2 m/S 736 mmHg 79%
    18:00 +26°C° 1.3 mm 2 m/S 737 mmHg 83%
    19:00 +25°C° 1.3 mm 2 m/S 737 mmHg 87%
    20:00 +24°C° 1.3 mm 2 m/S 737 mmHg 91%
    21:00 +23°C° 2.6 mm 2 m/S 737 mmHg 93%
    22:00 +23°C° 2.6 mm 2 m/S 737 mmHg 94%
    23:00 +22°C° 2.6 mm 1 m/S 737 mmHg 96%

    26 September, Mittwoch

    Zeit Temperatur Niederschläge Wind Luftdruck Luftfeuchtigkeit
    00:00 +21°C° 1.6 mm 2 m/S 737 mmHg 96%
    01:00 +21°C° 1.6 mm 2 m/S 736 mmHg 96%
    02:00 +21°C° 1.6 mm 2 m/S 736 mmHg 96%
    03:00 +21°C° 0.9 mm 2 m/S 736 mmHg 96%
    04:00 +22°C° 0.9 mm 1 m/S 736 mmHg 96%
    05:00 +22°C° 0.9 mm 1 m/S 736 mmHg 96%
    06:00 +23°C° 0.9 mm 1 m/S 736 mmHg 95%
    07:00 +23°C° 0.9 mm 1 m/S 737 mmHg 93%
    08:00 +22°C° 0.9 mm 0 m/S 737 mmHg 92%
    09:00 +26°C° 0 mm 1 m/S 737 mmHg 84%
    10:00 +27°C° 0 mm 1 m/S 737 mmHg 76%
    11:00 +29°C° 0 mm 1 m/S 737 mmHg 68%
    12:00 +30°C° 0 mm 1 m/S 736 mmHg 63%
    13:00 +32°C° 0 mm 1 m/S 735 mmHg 57%
    14:00 +33°C° 0 mm 1 m/S 735 mmHg 52%
    15:00 +32°C° 0 mm 1 m/S 734 mmHg 57%
    16:00 +31°C° 0 mm 1 m/S 734 mmHg 62%
    17:00 +28°C° 0 mm 0 m/S 734 mmHg 67%
    18:00 +27°C° 0.2 mm 0 m/S 735 mmHg 73%
    19:00 +25°C° 0.2 mm 0 m/S 735 mmHg 79%
    20:00 +24°C° 0.2 mm 0 m/S 735 mmHg 85%
    21:00 +25°C° 0.3 mm 1 m/S 735 mmHg 87%
    22:00 +25°C° 0.3 mm 1 m/S 735 mmHg 89%
    23:00 +24°C° 0.3 mm 1 m/S 735 mmHg 91%

    27 September, Donnerstag

    Zeit Temperatur Niederschläge Wind Luftdruck Luftfeuchtigkeit
    00:00 +24°C° 0 mm 1 m/S 735 mmHg 92%
    01:00 +24°C° 0 mm 1 m/S 735 mmHg 93%
    02:00 +24°C° 0 mm 1 m/S 735 mmHg 94%
    03:00 +23°C° 0.4 mm 1 m/S 735 mmHg 94%
    04:00 +23°C° 0.4 mm 1 m/S 735 mmHg 95%
    05:00 +23°C° 0.4 mm 1 m/S 735 mmHg 96%
    06:00 +24°C° 0.5 mm 1 m/S 736 mmHg 94%
    07:00 +24°C° 0.5 mm 1 m/S 736 mmHg 93%
    08:00 +25°C° 0.5 mm 1 m/S 737 mmHg 91%
    09:00 +26°C° 0 mm 2 m/S 736 mmHg 84%
    10:00 +28°C° 0 mm 2 m/S 736 mmHg 76%
    11:00 +30°C° 0 mm 2 m/S 736 mmHg 69%
    12:00 +30°C° 0.4 mm 3 m/S 735 mmHg 68%
    13:00 +30°C° 0.4 mm 3 m/S 734 mmHg 68%
    14:00 +30°C° 0.4 mm 3 m/S 734 mmHg 68%
    15:00 +29°C° 0.3 mm 3 m/S 734 mmHg 70%
    16:00 +28°C° 0.3 mm 2 m/S 734 mmHg 72%
    17:00 +27°C° 0.3 mm 2 m/S 733 mmHg 74%
    18:00 +26°C° 0.5 mm 2 m/S 734 mmHg 79%
    19:00 +25°C° 0.5 mm 2 m/S 734 mmHg 84%
    20:00 +24°C° 0.5 mm 3 m/S 735 mmHg 88%
    21:00 +24°C° 0.1 mm 2 m/S 735 mmHg 88%
    22:00 +24°C° 0.1 mm 2 m/S 734 mmHg 88%
    23:00 +24°C° 0.1 mm 2 m/S 734 mmHg 88%

    28 September, Freitag

    Zeit Temperatur Niederschläge Wind Luftdruck Luftfeuchtigkeit
    00:00 +24°C° 0.2 mm 2 m/S 734 mmHg 85%
    01:00 +24°C° 0.2 mm 2 m/S 734 mmHg 82%
    02:00 +24°C° 0.2 mm 2 m/S 734 mmHg 79%
    03:00 +23°C° 3.5 mm 2 m/S 734 mmHg 85%
    04:00 +23°C° 3.5 mm 2 m/S 734 mmHg 91%
    05:00 +21°C° 3.5 mm 2 m/S 734 mmHg 96%
    06:00 +21°C° 3.2 mm 2 m/S 735 mmHg 96%
    07:00 +23°C° 3.2 mm 2 m/S 735 mmHg 96%
    08:00 +23°C° 3.2 mm 2 m/S 736 mmHg 96%
    09:00 +25°C° 1 mm 3 m/S 736 mmHg 87%
    10:00 +27°C° 1 mm 3 m/S 736 mmHg 78%
    11:00 +30°C° 1 mm 3 m/S 735 mmHg 69%
    12:00 +31°C° 0 mm 3 m/S 735 mmHg 65%
    13:00 +33°C° 0 mm 3 m/S 734 mmHg 61%
    14:00 +34°C° 0 mm 2 m/S 733 mmHg 58%
    15:00 +32°C° 0 mm 2 m/S 733 mmHg 63%
    16:00 +31°C° 0 mm 2 m/S 733 mmHg 68%
    17:00 +30°C° 0 mm 2 m/S 733 mmHg 73%
    18:00 +29°C° 0 mm 2 m/S 733 mmHg 78%
    19:00 +27°C° 0 mm 2 m/S 734 mmHg 83%
    20:00 +26°C° 0 mm 2 m/S 734 mmHg 87%
    21:00 +25°C° 0.5 mm 2 m/S 734 mmHg 88%
    22:00 +25°C° 0.5 mm 2 m/S 734 mmHg 89%
    23:00 +24°C° 0.5 mm 3 m/S 735 mmHg 90%
    Mehr zeigen